Location: Bothwell
(42.3833°S, 147.0000°E)
Time: 10:25:14
(UTC+11:00)

NOAA 18 - Pass Details

Date: 03 October 2023
Orbit: 839 x 858 km, 98.9° (Epoch: 06 December)

Event Time Altitude Azimuth Distance (km) Brightness Sun altitude
Rises 23:51:53 0° 163° (SSE) 3,469 8.9 -41.0°
Reaches altitude 10° 23:54:19 10° 160° (SSE) 2,523 8.1 -41.2°
Enters shadow 23:55:08 15° 158° (SSE) 2,211 7.7 -41.3°
